Location: Bennemühlen
(52.5740°N, 9.7135°E)
Time: 21:06:55
(UTC+00:00)

Cosmos 2278 - Pass Details

Date: 19 May 2025
Orbit: 839 x 850 km, 71.1° (Epoch: 15 June)

Event Time Altitude Azimuth Distance (km) Brightness Sun altitude
Rises 21:22:00 0° 329° (NNW) 3,407 8.9 -13.2°
Reaches altitude 10° 21:24:34 10° 336° (NNW) 2,468 7.6 -13.4°
Maximum altitude 21:30:00 45° 49° (NE) 1,135 4.5 -13.8°
Enters shadow 21:34:40 14° 119° (ESE) 2,207 5.4 -14.1°
